427  
NZUS59 KLOT 072309  
HRRLOT  
 
CHICAGO AREA WEATHER ROUNDUP  
NATIONAL WEATHER SERVICE CHICAGO/ROMEOVILLE IL  
600 PM CDT TUE JUL 07 2020  
 
NOTE: "FAIR" INDICATES FEW OR NO CLOUDS BELOW 12,000 FEET WITH NO  
SIGNIFICANT WEATHER AND/OR OBSTRUCTIONS TO VISIBILITY.  
 
* THESE STATIONS ARE NOT UNDER NWS QUALITY CONTROL. THEY ALSO MAY NOT  
REPORT WEATHER SUCH AS PRECIPITATION OR FOG.  
 
ILZ005-006-012>014-019>023-080000-  
NORTHEAST ILLINOIS  
 
CITY SKY/WX TMP DP RH WIND PRES REMARKS  
OHARE PTSUNNY 85 71 63 N15G25 29.89S THUNDER HX 90  
MIDWAY MOSUNNY 91 66 43 SE12 29.89F HX 93  
AURORA MOSUNNY 91 68 46 SW6 29.90S HX 95  
JOLIET* SUNNY 94 63 36 W3 29.89F HX 95  
WAUKEGAN PTSUNNY 85 69 58 S12 29.90S HX 89  
DUPAGE AIRPORT SUNNY 91 69 48 W8 29.90S HX 96  
WHEELING MOSUNNY 81 70 69 S8 29.93S THUNDER HX 84  
KANKAKEE* SUNNY 92 64 39 W7 29.91F HX 93  
MORRIS* SUNNY 91 66 43 CALM 29.90S HX 94  
LEWIS AIRPORT* SUNNY 92 64 39 NW7 29.89F HX 94  
NORTHERLY ISL N/A 81 71 71 E7 N/A HX 85  
NORTHERLY IS NOT AVBL  
NORTHERLY ISL N/A 81 71 71 E7 N/A HX 85  

 
 
WIZ051-052-058>065-066-070>072-080000-  
SOUTHEAST WISCONSIN  
 
CITY SKY/WX TMP DP RH WIND PRES REMARKS  
MILWAUKEE PTSUNNY 87 69 54 SE9 29.90S HX 91  
KENOSHA* MOSUNNY 88 68 51 S10G18 29.91S HX 91  
RACINE* MOSUNNY 85 71 63 S10 29.92S HX 90  
BURLINGTON N/A 87 68 53 CALM 29.91S HX 91  
WAUKESHA CLOUDY 81 66 61 NE9 29.94R HX 83  
WEST BEND HVY RAIN 68 68 100 NW10G20 30.01R  

 
 
INZ001>003-010>013-019-020-080000-  
NORTHWEST INDIANA  
 
CITY SKY/WX TMP DP RH WIND PRES REMARKS  
GARY* SUNNY 88 70 55 SE5 29.91F HX 92  
MICHIGAN CITY* NOT AVBL  
RENSSELAER* NOT AVBL  
VALPARAISO SUNNY 86 71 60 E5 29.92F HX 91  

 
 
LMZ740>746-080000-  
SOUTHERN LAKE MICHIGAN  
 
STATION/POSITION TIME SKY/WX TEMP WIND PRES VSBY  
AIR DIR/SP/G  
(UTC) (F) (DEG/KT/KT) (MB) (MI)  
HARRISON CRIB 2240 81 130/ 12/ 13 N/A  
NORTHERLY ISL 2300 80 90/ 4/ 9 N/A  
CALUMET HARBOR 2230 87 1012.2  
BURNS HARBOR NOT AVBL  
MICHIGAN CITY 2200 82 230/ 5/ 6 N/A  

 
 
ABBREVIATIONS USED IN REMARKS  
TC - TEMPERATURE IN CELSIUS  
WCI - WIND CHILL INDEX  
HX - HEAT INDEX  
VSB - VISIBILITY  

 
 
 
CLICK HERE TO GO TO PREVIOUS BULLETINS.

The Nexlab IL Page
The Nexlab IN Page Main Text Page